Regional Weather Roundup
Issued by NWS

Home | Current Version | Previous Version | Graphics & Text | Print | Product List | Glossary On
Versions: 1 2 3 4 5 6 7 8 9 10 11 12 13 14 15 16 17 18 19 20 21 22 23 24 25 26 27 28 29 30 31 32 33 34 35 36 37 38 39 40 41 42 43 44 45 46 47 48 49 50
731
ASUS43 KFSD 210310
RWRSD

WEATHER ROUNDUP FOR SOUTH DAKOTA
NATIONAL WEATHER SERVICE SIOUX FALLS SD
1000 PM CDT FRI OCT 20 2017

NOTE: "FAIR" INDICATES FEW OR NO CLOUDS BELOW 12,000 FEET WITH NO
SIGNIFICANT WEATHER AND/OR OBSTRUCTIONS TO VISIBILITY.


SDZ001>005-009-010-012>017-210400-
NORTHWEST AND NORTH CENTRAL SOUTH DAKOTA

CITY           SKY/WX    TMP DP  RH WIND       PRES   REMARKS
BUFFALO          N/A     63  32  31 SW12      29.21S
FAITH            N/A     64  47  53 S14       29.31R
MOBRIDGE       CLEAR     65  54  67 SE15      29.29S
$$

SDZ012>016-024>037-041>051-057-063-072>074-210400-
SOUTHWEST AND SOUTH CENTRAL SOUTH DAKOTA

CITY           SKY/WX    TMP DP  RH WIND       PRES   REMARKS
RAPID CTY ARPT CLEAR     62  38  40 SW8       29.36R
PIERRE         CLEAR     62  53  72 SE13      29.35S
CUSTER         CLOUDY    64  27  24 SW7G20    29.49R
ELLSWORTH AFB  PTCLDY    64  36  35 SW3       29.35R
PHILIP         CLEAR     66  51  58 S14       29.33R
PINE RIDGE     CLEAR     66  47  50 S10       29.41R
SPEARFISH      FAIR      68  30  24 SW13      29.38R
WINNER         FAIR      69  54  58 S23G31    29.40F
$$

SDZ004>011-016>023-039-040-210400-
NORTHEAST SOUTH DAKOTA

CITY           SKY/WX    TMP DP  RH WIND       PRES   REMARKS
ABERDEEN       CLEAR     68  57  68 S22G28    29.40F
WATERTOWN      MOCLDY    67  58  72 S26G33    29.50S
BROOKINGS      CLOUDY    69  58  67 S20G33    29.55S
SISSETON         N/A     68  57  68 S18       29.46F
$$

SDZ017-020-022-023-036>040-048>070-210400-
SOUTHEAST SOUTH DAKOTA

CITY           SKY/WX    TMP DP  RH WIND       PRES   REMARKS
SIOUX FALLS    MOCLDY    70  59  68 S22G32    29.58S
HURON          MOCLDY    70  57  63 S20G26    29.44F
CHAMBERLAIN    CLEAR     68  57  68 S12       29.42S
MITCHELL       CLOUDY    71  58  63 S21       29.48F
YANKTON        CLOUDY    70  58  65 S18       29.56S
$$

ABBREVIATIONS USED IN REMARKS
   TC - TEMPERATURE IN CELSIUS
  WCI - WIND CHILL INDEX
   HX - HEAT INDEX
  VSB - VISIBILITY





USA.gov is the U.S. government's official web portal to all federal, state and local government web resources and services.